owner,sensor,date,latitude,longitude,vertical_datum,direction_of_sea_water_velocity,sea_water_speed,upward_sea_water_velocity,qcFlag 
TABS,ioos:station:wmo:42043:1,2014-05-01T00:00:00Z,28.9818,-94.9186,2.0,254.49475,39.83986195,-99999.0,'11111222,11111222,99999999' 
TABS,ioos:station:wmo:42043:1,2014-05-01T00:30:00Z,28.9818,-94.9186,2.0,256.371127,45.32620544,-99999.0,'11111222,11111222,99999999' 
TABS,ioos:station:wmo:42043:1,2014-05-01T01:00:00Z,28.9818,-94.9186,2.0,258.2792914,37.51209538,-99999.0,'11111222,11111222,99999999' 
TABS,ioos:station:wmo:42043:1,2014-05-01T01:30:00Z,28.9818,-94.9186,2.0,257.3199959,36.26439025,-99999.0,'11111222,11111222,99999999' 
TABS,ioos:station:wmo:42043:1,2014-05-01T02:00:00Z,28.9818,-94.9186,2.0,258.2280294,35.5373972,-99999.0,'11111222,11111222,99999999' 
TABS,ioos:station:wmo:42043:1,2014-05-01T02:30:00Z,28.9818,-94.9186,2.0,260.0464384,35.11855635,-99999.0,'11111222,11111222,99999999' 
TABS,ioos:station:wmo:42043:1,2014-05-01T03:00:00Z,28.9818,-94.9186,2.0,264.2924044,33.48598662,-99999.0,'11111222,11111222,99999999' 
TABS,ioos:station:wmo:42043:1,2014-05-01T03:30:00Z,28.9818,-94.9186,2.0,261.9827154,37.93069601,-99999.0,'11111222,11111222,99999999' 
TABS,ioos:station:wmo:42043:1,2014-05-01T04:00:00Z,28.9818,-94.9186,2.0,260.1427344,32.94633819,-99999.0,'11111222,11111222,99999999' 
TABS,ioos:station:wmo:42043:1,2014-05-01T04:30:00Z,28.9818,-94.9186,2.0,260.0389388,31.56579953,-99999.0,'11111222,11111222,99999999' 
TABS,ioos:station:wmo:42043:1,2014-05-01T05:00:00Z,28.9818,-94.9186,2.0,266.0265451,29.00971734,-99999.0,'11111222,11111222,99999999' 
TABS,ioos:station:wmo:42043:1,2014-05-01T05:30:00Z,28.9818,-94.9186,2.0,269.3120643,27.50197993,-99999.0,'11111222,11111222,99999999' 
TABS,ioos:station:wmo:42043:1,2014-05-01T06:00:00Z,28.9818,-94.9186,2.0,266.8605644,26.47972998,-99999.0,'11111222,11111222,99999999' 
TABS,ioos:station:wmo:42043:1,2014-05-01T06:30:00Z,28.9818,-94.9186,2.0,263.814831,28.49585584,-99999.0,'11111222,11111222,99999999' 
TABS,ioos:station:wmo:42043:1,2014-05-01T07:00:00Z,28.9818,-94.9186,2.0,267.2467305,29.77435977,-99999.0,'11111222,11111222,99999999' 
TABS,ioos:station:wmo:42043:1,2014-05-01T07:30:00Z,28.9818,-94.9186,2.0,261.4053284,28.10558841,-99999.0,'11111222,11111222,99999999' 
TABS,ioos:station:wmo:42043:1,2014-05-01T08:00:00Z,28.9818,-94.9186,2.0,261.0007991,28.45017575,-99999.0,'11111222,11111222,99999999' 
TABS,ioos:station:wmo:42043:1,2014-05-01T08:30:00Z,28.9818,-94.9186,2.0,257.0400908,30.5891435,-99999.0,'11111222,11111222,99999999' 
TABS,ioos:station:wmo:42043:1,2014-05-01T09:00:00Z,28.9818,-94.9186,2.0,261.6711938,35.14058907,-99999.0,'11111222,11111222,99999999' 
TABS,ioos:station:wmo:42043:1,2014-05-01T09:30:00Z,28.9818,-94.9186,2.0,258.5298293,33.03981386,-99999.0,'11111222,11111222,99999999' 
TABS,ioos:station:wmo:42043:1,2014-05-01T10:00:00Z,28.9818,-94.9186,2.0,256.9912422,31.23148732,-99999.0,'11111222,11111222,99999999' 
TABS,ioos:station:wmo:42043:1,2014-05-01T10:30:00Z,28.9818,-94.9186,2.0,256.642195,34.80145399,-99999.0,'11111222,11111222,99999999' 
TABS,ioos:station:wmo:42043:1,2014-05-01T11:00:00Z,28.9818,-94.9186,2.0,250.8587138,39.52514643,-99999.0,'11111222,11111222,99999999' 
TABS,ioos:station:wmo:42043:1,2014-05-01T11:30:00Z,28.9818,-94.9186,2.0,253.9811884,40.94996459,-99999.0,'11111222,11111222,99999999' 
TABS,ioos:station:wmo:42043:1,2014-05-01T12:00:00Z,28.9818,-94.9186,2.0,255.6364777,42.08546661,-99999.0,'11111222,11111222,99999999' 
TABS,ioos:station:wmo:42043:1,2014-05-01T12:30:00Z,28.9818,-94.9186,2.0,250.522433,42.76739412,-99999.0,'11111222,11111222,99999999' 
TABS,ioos:station:wmo:42043:1,2014-05-01T13:00:00Z,28.9818,-94.9186,2.0,251.9286705,41.812479,-99999.0,'11111222,11111222,99999999' 
TABS,ioos:station:wmo:42043:1,2014-05-01T13:30:00Z,28.9818,-94.9186,2.0,247.0308928,43.20541633,-99999.0,'11111222,11111222,99999999' 
TABS,ioos:station:wmo:42043:1,2014-05-01T14:00:00Z,28.9818,-94.9186,2.0,251.9111743,44.44662529,-99999.0,'11111222,11111222,99999999' 
TABS,ioos:station:wmo:42043:1,2014-05-01T14:30:00Z,28.9818,-94.9186,2.0,250.1270145,44.74450246,-99999.0,'11111222,11111222,99999999' 
TABS,ioos:station:wmo:42043:1,2014-05-01T15:00:00Z,28.9818,-94.9186,2.0,252.530558,47.83624672,-99999.0,'11111222,11111222,99999999' 
TABS,ioos:station:wmo:42043:1,2014-05-01T15:30:00Z,28.9818,-94.9186,2.0,254.361805,44.77744187,-99999.0,'11111222,11111222,99999999' 
TABS,ioos:station:wmo:42043:1,2014-05-01T16:00:00Z,28.9818,-94.9186,2.0,254.5901364,46.55353155,-99999.0,'11111222,11111222,99999999' 
TABS,ioos:station:wmo:42043:1,2014-05-01T16:30:00Z,28.9818,-94.9186,2.0,258.1268556,44.52247185,-99999.0,'11111222,11111222,99999999' 
TABS,ioos:station:wmo:42043:1,2014-05-01T17:00:00Z,28.9818,-94.9186,2.0,260.8449571,45.00322766,-99999.0,'11111222,11111222,99999999' 
TABS,ioos:station:wmo:42043:1,2014-05-01T17:30:00Z,28.9818,-94.9186,2.0,257.6144685,46.71720561,-99999.0,'11111222,11111222,99999999' 
TABS,ioos:station:wmo:42043:1,2014-05-01T18:00:00Z,28.9818,-94.9186,2.0,258.2757055,43.70169905,-99999.0,'11111222,11111222,99999999' 
TABS,ioos:station:wmo:42043:1,2014-05-01T18:30:00Z,28.9818,-94.9186,2.0,261.1189407,43.7241638,-99999.0,'11111222,11111222,99999999' 
TABS,ioos:station:wmo:42043:1,2014-05-01T19:00:00Z,28.9818,-94.9186,2.0,261.8234816,40.50167527,-99999.0,'11111222,11111222,99999999' 
TABS,ioos:station:wmo:42043:1,2014-05-01T19:30:00Z,28.9818,-94.9186,2.0,262.5839542,42.3038308,-99999.0,'11111222,11111222,99999999' 
TABS,ioos:station:wmo:42043:1,2014-05-01T20:00:00Z,28.9818,-94.9186,2.0,263.0682385,46.23793248,-99999.0,'11111222,11111222,99999999' 
TABS,ioos:station:wmo:42043:1,2014-05-01T20:30:00Z,28.9818,-94.9186,2.0,265.885945,42.23881864,-99999.0,'11111222,11111222,99999999' 
TABS,ioos:station:wmo:42043:1,2014-05-01T21:00:00Z,28.9818,-94.9186,2.0,266.3877522,38.25598646,-99999.0,'11111222,11111222,99999999' 
TABS,ioos:station:wmo:42043:1,2014-05-01T21:30:00Z,28.9818,-94.9186,2.0,260.5985401,39.97692459,-99999.0,'11111222,11111222,99999999' 
TABS,ioos:station:wmo:42043:1,2014-05-01T22:00:00Z,28.9818,-94.9186,2.0,260.6390745,37.01284642,-99999.0,'11111222,11111222,99999999' 
TABS,ioos:station:wmo:42043:1,2014-05-01T22:30:00Z,28.9818,-94.9186,2.0,256.8254763,37.55846775,-99999.0,'11111222,11111222,99999999' 
TABS,ioos:station:wmo:42043:1,2014-05-01T23:00:00Z,28.9818,-94.9186,2.0,260.5420634,39.37520159,-99999.0,'11111222,11111222,99999999' 
TABS,ioos:station:wmo:42043:1,2014-05-01T23:30:00Z,28.9818,-94.9186,2.0,257.4101981,37.94224295,-99999.0,'11111222,11111222,99999999' 
TABS,ioos:station:wmo:42043:1,2014-05-02T00:00:00Z,28.9818,-94.9186,2.0,256.3706575,34.46033227,-99999.0,'11111222,11111222,99999999' 
TABS,ioos:station:wmo:42043:1,2014-05-02T00:30:00Z,28.9818,-94.9186,2.0,253.3220974,35.36773812,-99999.0,'11111222,11111222,99999999' 
TABS,ioos:station:wmo:42043:1,2014-05-02T01:00:00Z,28.9818,-94.9186,2.0,252.9779459,38.97744219,-99999.0,'11111222,11111222,99999999' 
TABS,ioos:station:wmo:42043:1,2014-05-02T01:30:00Z,28.9818,-94.9186,2.0,249.0225615,37.43076943,-99999.0,'11111222,11111222,99999999' 
TABS,ioos:station:wmo:42043:1,2014-05-02T02:00:00Z,28.9818,-94.9186,2.0,245.3044268,36.04672107,-99999.0,'11111222,11111222,99999999' 
TABS,ioos:station:wmo:42043:1,2014-05-02T02:30:00Z,28.9818,-94.9186,2.0,243.6035036,37.9238777,-99999.0,'11111222,11111222,99999999' 
TABS,ioos:station:wmo:42043:1,2014-05-02T03:00:00Z,28.9818,-94.9186,2.0,247.5175787,34.85933161,-99999.0,'11111222,11111222,99999999' 
TABS,ioos:station:wmo:42043:1,2014-05-02T03:30:00Z,28.9818,-94.9186,2.0,243.1878854,34.27476769,-99999.0,'11111222,11111222,99999999' 
TABS,ioos:station:wmo:42043:1,2014-05-02T04:00:00Z,28.9818,-94.9186,2.0,240.1822281,27.43154389,-99999.0,'11111222,11111222,99999999' 
TABS,ioos:station:wmo:42043:1,2014-05-02T04:30:00Z,28.9818,-94.9186,2.0,242.0641871,27.30125455,-99999.0,'11111222,11111222,99999999' 
TABS,ioos:station:wmo:42043:1,2014-05-02T05:00:00Z,28.9818,-94.9186,2.0,237.6303819,25.86977,-99999.0,'11111222,11111222,99999999' 
TABS,ioos:station:wmo:42043:1,2014-05-02T05:30:00Z,28.9818,-94.9186,2.0,239.3911994,23.7838811,-99999.0,'11111222,11111222,99999999' 
TABS,ioos:station:wmo:42043:1,2014-05-02T06:00:00Z,28.9818,-94.9186,2.0,238.101328,24.3937738,-99999.0,'11111222,11111222,99999999' 
TABS,ioos:station:wmo:42043:1,2014-05-02T06:30:00Z,28.9818,-94.9186,2.0,238.2200865,19.63343322,-99999.0,'11111222,11111222,99999999' 
TABS,ioos:station:wmo:42043:1,2014-05-02T07:00:00Z,28.9818,-94.9186,2.0,240.2332101,19.77982052,-99999.0,'11111222,11111222,99999999' 
TABS,ioos:station:wmo:42043:1,2014-05-02T07:30:00Z,28.9818,-94.9186,2.0,251.6493884,19.24880516,-99999.0,'11111222,11111222,99999999' 
TABS,ioos:station:wmo:42043:1,2014-05-02T08:00:00Z,28.9818,-94.9186,2.0,248.1197066,16.26135603,-99999.0,'11111222,11111222,99999999' 
TABS,ioos:station:wmo:42043:1,2014-05-02T08:30:00Z,28.9818,-94.9186,2.0,253.1976131,17.08956407,-99999.0,'11111222,11111222,99999999' 
TABS,ioos:station:wmo:42043:1,2014-05-02T09:00:00Z,28.9818,-94.9186,2.0,258.8275408,19.56067995,-99999.0,'11111222,11111222,99999999' 
TABS,ioos:station:wmo:42043:1,2014-05-02T09:30:00Z,28.9818,-94.9186,2.0,258.0844599,18.93803052,-99999.0,'11111222,11111222,99999999' 
TABS,ioos:station:wmo:42043:1,2014-05-02T10:00:00Z,28.9818,-94.9186,2.0,262.8986013,20.70884111,-99999.0,'11111222,11111222,99999999' 
TABS,ioos:station:wmo:42043:1,2014-05-02T10:30:00Z,28.9818,-94.9186,2.0,256.0865516,18.04954293,-99999.0,'11111222,11111222,99999999' 
TABS,ioos:station:wmo:42043:1,2014-05-02T11:00:00Z,28.9818,-94.9186,2.0,248.1428999,19.23247514,-99999.0,'11111222,11111222,99999999' 
TABS,ioos:station:wmo:42043:1,2014-05-02T11:30:00Z,28.9818,-94.9186,2.0,248.8770037,17.39901721,-99999.0,'11111222,11111222,99999999' 
TABS,ioos:station:wmo:42043:1,2014-05-02T12:00:00Z,28.9818,-94.9186,2.0,242.5627671,20.57420715,-99999.0,'11111222,11111222,99999999' 
TABS,ioos:station:wmo:42043:1,2014-05-02T12:30:00Z,28.9818,-94.9186,2.0,245.8113269,18.54848781,-99999.0,'11111222,11111222,99999999' 
TABS,ioos:station:wmo:42043:1,2014-05-02T13:00:00Z,28.9818,-94.9186,2.0,243.051774,18.07230478,-99999.0,'11111222,11111222,99999999' 
TABS,ioos:station:wmo:42043:1,2014-05-02T13:30:00Z,28.9818,-94.9186,2.0,237.4019284,21.5318276,-99999.0,'11111222,11111222,99999999' 
TABS,ioos:station:wmo:42043:1,2014-05-02T14:00:00Z,28.9818,-94.9186,2.0,222.8818245,18.5600889,-99999.0,'11111222,11111222,99999999' 
TABS,ioos:station:wmo:42043:1,2014-05-02T14:30:00Z,28.9818,-94.9186,2.0,229.0268135,20.23786797,-99999.0,'11111222,11111222,99999999' 
TABS,ioos:station:wmo:42043:1,2014-05-02T15:00:00Z,28.9818,-94.9186,2.0,235.4100527,18.19640899,-99999.0,'11111222,11111222,99999999' 
TABS,ioos:station:wmo:42043:1,2014-05-02T15:30:00Z,28.9818,-94.9186,2.0,226.8320025,18.79743866,-99999.0,'11111222,11111222,99999999' 
TABS,ioos:station:wmo:42043:1,2014-05-02T16:00:00Z,28.9818,-94.9186,2.0,231.4079285,15.77512282,-99999.0,'11111222,11111222,99999999' 
TABS,ioos:station:wmo:42043:1,2014-05-02T16:30:00Z,28.9818,-94.9186,2.0,221.4778949,18.07242374,-99999.0,'11111222,11111222,99999999' 
TABS,ioos:station:wmo:42043:1,2014-05-02T17:00:00Z,28.9818,-94.9186,2.0,219.5844194,19.93036879,-99999.0,'11111222,11111222,99999999' 
TABS,ioos:station:wmo:42043:1,2014-05-02T17:30:00Z,28.9818,-94.9186,2.0,225.5386459,17.28952573,-99999.0,'11111222,11111222,99999999' 
TABS,ioos:station:wmo:42043:1,2014-05-02T18:00:00Z,28.9818,-94.9186,2.0,220.3273696,16.58018396,-99999.0,'11111222,11111222,99999999' 
TABS,ioos:station:wmo:42043:1,2014-05-02T18:30:00Z,28.9818,-94.9186,2.0,227.9601373,14.64959044,-99999.0,'11111222,11111222,99999999' 
TABS,ioos:station:wmo:42043:1,2014-05-02T19:00:00Z,28.9818,-94.9186,2.0,234.0594979,17.87235295,-99999.0,'11111222,11111222,99999999' 
TABS,ioos:station:wmo:42043:1,2014-05-02T19:30:00Z,28.9818,-94.9186,2.0,245.5377223,15.8420327,-99999.0,'11111222,11111222,99999999' 
TABS,ioos:station:wmo:42043:1,2014-05-02T20:00:00Z,28.9818,-94.9186,2.0,243.4789938,17.31164348,-99999.0,'11111222,11111222,99999999' 
TABS,ioos:station:wmo:42043:1,2014-05-02T20:30:00Z,28.9818,-94.9186,2.0,247.7493201,18.72423563,-99999.0,'11111222,11111222,99999999' 
TABS,ioos:station:wmo:42043:1,2014-05-02T21:00:00Z,28.9818,-94.9186,2.0,246.79349,19.92181217,-99999.0,'11111222,11111222,99999999' 
TABS,ioos:station:wmo:42043:1,2014-05-02T21:30:00Z,28.9818,-94.9186,2.0,254.4562886,20.74882406,-99999.0,'11111222,11111222,99999999' 
TABS,ioos:station:wmo:42043:1,2014-05-02T22:00:00Z,28.9818,-94.9186,2.0,262.0043088,15.02606069,-99999.0,'11111222,11111222,99999999' 
TABS,ioos:station:wmo:42043:1,2014-05-02T22:30:00Z,28.9818,-94.9186,2.0,251.6463201,17.75304481,-99999.0,'11111222,11111222,99999999' 
TABS,ioos:station:wmo:42043:1,2014-05-02T23:00:00Z,28.9818,-94.9186,2.0,256.7913089,15.27406298,-99999.0,'11111222,11111222,99999999' 
TABS,ioos:station:wmo:42043:1,2014-05-02T23:30:00Z,28.9818,-94.9186,2.0,264.82077,13.29426944,-99999.0,'11111222,11111222,99999999' 
TABS,ioos:station:wmo:42043:1,2014-05-03T00:00:00Z,28.9818,-94.9186,2.0,265.5880071,13.65044322,-99999.0,'11111222,11111222,99999999' 
TABS,ioos:station:wmo:42043:1,2014-05-03T00:30:00Z,28.9818,-94.9186,2.0,263.5193838,13.55661462,-99999.0,'11111222,11111222,99999999' 
TABS,ioos:station:wmo:42043:1,2014-05-03T01:00:00Z,28.9818,-94.9186,2.0,264.0089984,11.40226732,-99999.0,'11111222,11111222,99999999' 
TABS,ioos:station:wmo:42043:1,2014-05-03T01:30:00Z,28.9818,-94.9186,2.0,265.012165,14.03313222,-99999.0,'11111222,11111222,99999999' 
TABS,ioos:station:wmo:42043:1,2014-05-03T02:00:00Z,28.9818,-94.9186,2.0,260.9467021,11.50329083,-99999.0,'11111222,11111222,99999999' 
TABS,ioos:station:wmo:42043:1,2014-05-03T02:30:00Z,28.9818,-94.9186,2.0,259.6198931,8.214426334,-99999.0,'11133222,11111222,99999999' 
TABS,ioos:station:wmo:42043:1,2014-05-03T03:00:00Z,28.9818,-94.9186,2.0,294.1213476,5.872784689,-99999.0,'11133222,11111222,99999999' 
TABS,ioos:station:wmo:42043:1,2014-05-03T03:30:00Z,28.9818,-94.9186,2.0,304.1714252,5.946595665,-99999.0,'11133222,11111222,99999999' 
TABS,ioos:station:wmo:42043:1,2014-05-03T04:00:00Z,28.9818,-94.9186,2.0,321.8130806,3.218850727,-99999.0,'11133222,11111222,99999999' 
TABS,ioos:station:wmo:42043:1,2014-05-03T04:30:00Z,28.9818,-94.9186,2.0,6.718733831,3.846413914,-99999.0,'11133222,11111222,99999999' 
TABS,ioos:station:wmo:42043:1,2014-05-03T05:00:00Z,28.9818,-94.9186,2.0,17.2950548,6.35743659,-99999.0,'11133222,11111222,99999999' 
TABS,ioos:station:wmo:42043:1,2014-05-03T05:30:00Z,28.9818,-94.9186,2.0,37.42194073,9.758452746,-99999.0,'11133222,11111222,99999999' 
TABS,ioos:station:wmo:42043:1,2014-05-03T06:00:00Z,28.9818,-94.9186,2.0,45.4392967,10.14728042,-99999.0,'11111222,11111222,99999999' 
TABS,ioos:station:wmo:42043:1,2014-05-03T06:30:00Z,28.9818,-94.9186,2.0,51.68160248,13.370273,-99999.0,'11111222,11111222,99999999' 
TABS,ioos:station:wmo:42043:1,2014-05-03T07:00:00Z,28.9818,-94.9186,2.0,44.76762694,19.16982264,-99999.0,'11111222,11111222,99999999' 
TABS,ioos:station:wmo:42043:1,2014-05-03T07:30:00Z,28.9818,-94.9186,2.0,49.1831376,21.03589551,-99999.0,'11111222,11111222,99999999' 
TABS,ioos:station:wmo:42043:1,2014-05-03T08:00:00Z,28.9818,-94.9186,2.0,52.11667971,23.8577325,-99999.0,'11111222,11111222,99999999' 
TABS,ioos:station:wmo:42043:1,2014-05-03T08:30:00Z,28.9818,-94.9186,2.0,54.68475307,23.66471001,-99999.0,'11111222,11111222,99999999' 
TABS,ioos:station:wmo:42043:1,2014-05-03T09:00:00Z,28.9818,-94.9186,2.0,58.52602285,25.03292632,-99999.0,'11111222,11111222,99999999' 
TABS,ioos:station:wmo:42043:1,2014-05-03T09:30:00Z,28.9818,-94.9186,2.0,55.85240806,25.35060749,-99999.0,'11111222,11111222,99999999' 
TABS,ioos:station:wmo:42043:1,2014-05-03T10:00:00Z,28.9818,-94.9186,2.0,61.04568248,28.31982521,-99999.0,'11111222,11111222,99999999' 
TABS,ioos:station:wmo:42043:1,2014-05-03T10:30:00Z,28.9818,-94.9186,2.0,68.80675763,28.51883939,-99999.0,'11111222,11111222,99999999' 
TABS,ioos:station:wmo:42043:1,2014-05-03T11:00:00Z,28.9818,-94.9186,2.0,66.56286192,26.80118841,-99999.0,'11111222,11111222,99999999' 
TABS,ioos:station:wmo:42043:1,2014-05-03T11:30:00Z,28.9818,-94.9186,2.0,70.90868781,29.25931305,-99999.0,'11111222,11111222,99999999' 
TABS,ioos:station:wmo:42043:1,2014-05-03T12:00:00Z,28.9818,-94.9186,2.0,64.46742867,26.30937476,-99999.0,'11111222,11111222,99999999' 
TABS,ioos:station:wmo:42043:1,2014-05-03T12:30:00Z,28.9818,-94.9186,2.0,72.63065278,26.6974025,-99999.0,'11111222,11111222,99999999' 
TABS,ioos:station:wmo:42043:1,2014-05-03T13:00:00Z,28.9818,-94.9186,2.0,71.03403405,26.95325027,-99999.0,'11111222,11111222,99999999' 
TABS,ioos:station:wmo:42043:1,2014-05-03T13:30:00Z,28.9818,-94.9186,2.0,73.99177457,26.28945416,-99999.0,'11111222,11111222,99999999' 
TABS,ioos:station:wmo:42043:1,2014-05-03T14:00:00Z,28.9818,-94.9186,2.0,71.58637005,25.54804298,-99999.0,'11111222,11111222,99999999' 
TABS,ioos:station:wmo:42043:1,2014-05-03T14:30:00Z,28.9818,-94.9186,2.0,76.36228433,25.10789517,-99999.0,'11111222,11111222,99999999' 
TABS,ioos:station:wmo:42043:1,2014-05-03T15:00:00Z,28.9818,-94.9186,2.0,71.70206857,22.4870207,-99999.0,'11111222,11111222,99999999' 
TABS,ioos:station:wmo:42043:1,2014-05-03T15:30:00Z,28.9818,-94.9186,2.0,72.7927247,23.76364661,-99999.0,'11111222,11111222,99999999' 
TABS,ioos:station:wmo:42043:1,2014-05-03T16:00:00Z,28.9818,-94.9186,2.0,71.39906625,22.91712242,-99999.0,'11111222,11111222,99999999' 
TABS,ioos:station:wmo:42043:1,2014-05-03T16:30:00Z,28.9818,-94.9186,2.0,78.25528952,24.80940547,-99999.0,'11111222,11111222,99999999' 
TABS,ioos:station:wmo:42043:1,2014-05-03T17:00:00Z,28.9818,-94.9186,2.0,71.89028043,26.18724308,-99999.0,'11111222,11111222,99999999' 
TABS,ioos:station:wmo:42043:1,2014-05-03T17:30:00Z,28.9818,-94.9186,2.0,78.00120157,25.44594663,-99999.0,'11111222,11111222,99999999' 
TABS,ioos:station:wmo:42043:1,2014-05-03T18:00:00Z,28.9818,-94.9186,2.0,74.71604176,27.84484153,-99999.0,'11111222,11111222,99999999' 
TABS,ioos:station:wmo:42043:1,2014-05-03T18:30:00Z,28.9818,-94.9186,2.0,75.45431769,29.18546556,-99999.0,'11111222,11111222,99999999' 
TABS,ioos:station:wmo:42043:1,2014-05-03T19:00:00Z,28.9818,-94.9186,2.0,73.13452135,32.67542349,-99999.0,'11111222,11111222,99999999' 
TABS,ioos:station:wmo:42043:1,2014-05-03T19:30:00Z,28.9818,-94.9186,2.0,71.32006381,30.31703317,-99999.0,'11111222,11111222,99999999' 
TABS,ioos:station:wmo:42043:1,2014-05-03T20:00:00Z,28.9818,-94.9186,2.0,76.39047813,32.8935936,-99999.0,'11111222,11111222,99999999' 
TABS,ioos:station:wmo:42043:1,2014-05-03T20:30:00Z,28.9818,-94.9186,2.0,67.19551286,31.50247133,-99999.0,'11111222,11111222,99999999' 
TABS,ioos:station:wmo:42043:1,2014-05-03T21:00:00Z,28.9818,-94.9186,2.0,64.81225175,29.77066509,-99999.0,'11111222,11111222,99999999' 
TABS,ioos:station:wmo:42043:1,2014-05-03T21:30:00Z,28.9818,-94.9186,2.0,69.86011548,29.65315666,-99999.0,'11111222,11111222,99999999' 
TABS,ioos:station:wmo:42043:1,2014-05-03T22:00:00Z,28.9818,-94.9186,2.0,64.36696407,31.34487518,-99999.0,'11111222,11111222,99999999' 
TABS,ioos:station:wmo:42043:1,2014-05-03T22:30:00Z,28.9818,-94.9186,2.0,60.97030935,29.11818161,-99999.0,'11111222,11111222,99999999' 
TABS,ioos:station:wmo:42043:1,2014-05-03T23:00:00Z,28.9818,-94.9186,2.0,67.2014762,37.23941192,-99999.0,'11111222,11111222,99999999' 
TABS,ioos:station:wmo:42043:1,2014-05-03T23:30:00Z,28.9818,-94.9186,2.0,66.89079571,31.16036746,-99999.0,'11111222,11111222,99999999' 
TABS,ioos:station:wmo:42043:1,2014-05-04T00:00:00Z,28.9818,-94.9186,2.0,64.22689647,27.82828777,-99999.0,'11111222,11111222,99999999' 
TABS,ioos:station:wmo:42043:1,2014-05-04T00:30:00Z,28.9818,-94.9186,2.0,65.46525128,27.14054163,-99999.0,'11111222,11111222,99999999' 
TABS,ioos:station:wmo:42043:1,2014-05-04T01:00:00Z,28.9818,-94.9186,2.0,68.14811967,27.37707435,-99999.0,'11111222,11111222,99999999' 
TABS,ioos:station:wmo:42043:1,2014-05-04T01:30:00Z,28.9818,-94.9186,2.0,70.56254085,25.12181721,-99999.0,'11111222,11111222,99999999' 
TABS,ioos:station:wmo:42043:1,2014-05-04T02:00:00Z,28.9818,-94.9186,2.0,70.40380697,25.43309851,-99999.0,'11111222,11111222,99999999' 
TABS,ioos:station:wmo:42043:1,2014-05-04T02:30:00Z,28.9818,-94.9186,2.0,71.91488021,25.89953668,-99999.0,'11111222,11111222,99999999' 
TABS,ioos:station:wmo:42043:1,2014-05-04T03:00:00Z,28.9818,-94.9186,2.0,76.05024066,25.71850696,-99999.0,'11111222,11111222,99999999' 
TABS,ioos:station:wmo:42043:1,2014-05-04T03:30:00Z,28.9818,-94.9186,2.0,75.43711693,24.53836588,-99999.0,'11111222,11111222,99999999' 
TABS,ioos:station:wmo:42043:1,2014-05-04T04:00:00Z,28.9818,-94.9186,2.0,76.45052563,25.69515129,-99999.0,'11111222,11111222,99999999' 
TABS,ioos:station:wmo:42043:1,2014-05-04T04:30:00Z,28.9818,-94.9186,2.0,73.69152026,25.14160894,-99999.0,'11111222,11111222,99999999' 
TABS,ioos:station:wmo:42043:1,2014-05-04T05:00:00Z,28.9818,-94.9186,2.0,79.91693724,25.18904722,-99999.0,'11111222,11111222,99999999' 
TABS,ioos:station:wmo:42043:1,2014-05-04T05:30:00Z,28.9818,-94.9186,2.0,82.92347121,23.45869775,-99999.0,'11111222,11111222,99999999' 
TABS,ioos:station:wmo:42043:1,2014-05-04T06:00:00Z,28.9818,-94.9186,2.0,81.46925434,25.481923,-99999.0,'11111222,11111222,99999999' 
TABS,ioos:station:wmo:42043:1,2014-05-04T06:30:00Z,28.9818,-94.9186,2.0,77.45749699,27.16837132,-99999.0,'11111222,11111222,99999999' 
TABS,ioos:station:wmo:42043:1,2014-05-04T07:00:00Z,28.9818,-94.9186,2.0,76.29556444,27.22508035,-99999.0,'11111222,11111222,99999999' 
TABS,ioos:station:wmo:42043:1,2014-05-04T07:30:00Z,28.9818,-94.9186,2.0,73.26431179,28.58058432,-99999.0,'11111222,11111222,99999999' 
TABS,ioos:station:wmo:42043:1,2014-05-04T08:00:00Z,28.9818,-94.9186,2.0,77.1300634,31.69627107,-99999.0,'11111222,11111222,99999999' 
TABS,ioos:station:wmo:42043:1,2014-05-04T08:30:00Z,28.9818,-94.9186,2.0,73.64072917,34.2256512,-99999.0,'11111222,11111222,99999999' 
TABS,ioos:station:wmo:42043:1,2014-05-04T09:00:00Z,28.9818,-94.9186,2.0,72.93866147,36.67398533,-99999.0,'11111222,11111222,99999999' 
TABS,ioos:station:wmo:42043:1,2014-05-04T09:30:00Z,28.9818,-94.9186,2.0,73.49567721,37.1715375,-99999.0,'11111222,11111222,99999999' 
TABS,ioos:station:wmo:42043:1,2014-05-04T10:00:00Z,28.9818,-94.9186,2.0,77.86559279,35.29867561,-99999.0,'11111222,11111222,99999999' 
TABS,ioos:station:wmo:42043:1,2014-05-04T10:30:00Z,28.9818,-94.9186,2.0,73.34123784,40.70858509,-99999.0,'11111222,11111222,99999999' 
TABS,ioos:station:wmo:42043:1,2014-05-04T11:00:00Z,28.9818,-94.9186,2.0,75.43662018,39.01350664,-99999.0,'11111222,11111222,99999999' 
TABS,ioos:station:wmo:42043:1,2014-05-04T11:30:00Z,28.9818,-94.9186,2.0,73.49154426,44.30641601,-99999.0,'11111222,11111222,99999999' 
TABS,ioos:station:wmo:42043:1,2014-05-04T12:00:00Z,28.9818,-94.9186,2.0,77.74969927,48.87284011,-99999.0,'11111222,11111222,99999999' 
TABS,ioos:station:wmo:42043:1,2014-05-04T12:30:00Z,28.9818,-94.9186,2.0,76.56984615,49.2981237,-99999.0,'11111222,11111222,99999999' 
TABS,ioos:station:wmo:42043:1,2014-05-04T13:00:00Z,28.9818,-94.9186,2.0,80.57165401,49.93455717,-99999.0,'11111222,11111222,99999999' 
TABS,ioos:station:wmo:42043:1,2014-05-04T13:30:00Z,28.9818,-94.9186,2.0,83.94939771,48.28901014,-99999.0,'11111222,11111222,99999999' 
TABS,ioos:station:wmo:42043:1,2014-05-04T14:00:00Z,28.9818,-94.9186,2.0,85.47940843,52.27261711,-99999.0,'11111222,11111222,99999999' 
TABS,ioos:station:wmo:42043:1,2014-05-04T14:30:00Z,28.9818,-94.9186,2.0,82.33992526,52.06460986,-99999.0,'11111222,11111222,99999999' 
TABS,ioos:station:wmo:42043:1,2014-05-04T15:00:00Z,28.9818,-94.9186,2.0,83.70101507,52.22529081,-99999.0,'11111222,11111222,99999999' 
TABS,ioos:station:wmo:42043:1,2014-05-04T15:30:00Z,28.9818,-94.9186,2.0,83.24495834,55.51538345,-99999.0,'11111222,11111222,99999999' 
TABS,ioos:station:wmo:42043:1,2014-05-04T16:00:00Z,28.9818,-94.9186,2.0,82.12763434,54.39261807,-99999.0,'11111222,11111222,99999999' 